KI0MQ Weather Reports


time (UTC)temp
C
wind
direction
speed
KPH
gust
KPH
rain 1hr
cm
rain 24hr
cm
rain mn
cm
humidity
%
barometer
mb
20260508041508 11 0 0.0 0.0 0.00 0.00 0.00 60 1009.3
20260508041003 11 0 0.0 0.0 0.00 0.00 0.00 60 1009.4
20260508040503 11 0 0.0 0.0 0.00 0.00 0.00 60 1009.5
20260508040008 11 0 0.0 0.0 0.00 0.00 0.00 60 1009.5
20260508035503 11 0 0.0 0.0 0.00 0.00 0.00 60 1009.5
20260508035004 11 0 0.0 0.0 0.00 0.00 0.00 60 1009.4
20260508034507 11 0 0.0 0.0 0.00 0.00 0.00 61 1009.3
20260508033504 11 0 0.0 0.0 0.00 0.00 0.00 56 1009.4
20260508033007 12 0 0.0 0.0 0.00 0.00 0.00 55 1009.3
20260508032504 12 0 0.0 0.0 0.00 0.00 0.00 55 1009.4
20260508032003 12 0 0.0 0.0 0.00 0.00 0.00 55 1009.4
20260508031005 12 0 0.0 0.0 0.00 0.00 0.00 54 1009.4
20260508030503 12 0 0.0 0.0 0.00 0.00 0.00 53 1009.4
20260508030008 13 0 0.0 0.0 0.00 0.00 0.00 53 1009.3
20260508025503 13 0 0.0 0.0 0.00 0.00 0.00 52 1009.3
20260508025003 13 0 0.0 0.0 0.00 0.00 0.00 50 1009.2
20260508024508 13 0 0.0 0.0 0.00 0.00 0.00 50 1009.2
20260508024003 13 0 0.0 0.0 0.00 0.00 0.00 49 1009.2
20260508023503 13 0 0.0 0.0 0.00 0.00 0.00 48 1009.0
20260508022003 15 0 0.0 0.0 0.00 0.00 0.00 46 1009.0
20260508021508 15 0 0.0 0.0 0.00 0.00 0.00 45 1008.9
20260508021003 15 0 0.0 0.0 0.00 0.00 0.00 45 1008.8
20260508020503 15 0 0.0 0.0 0.00 0.00 0.00 44 1008.7
20260508020008 16 0 0.0 0.0 0.00 0.00 0.00 44 1008.6
20260508015503 16 0 0.0 0.0 0.00 0.00 0.00 42 1008.6
20260508015004 16 0 0.0 0.0 0.00 0.00 0.00 40 1008.6
20260508014507 17 0 0.0 0.0 0.00 0.00 0.00 39 1008.6
20260508014004 17 0 0.0 0.0 0.00 0.00 0.00 37 1008.6
20260508013504 18 25 0.0 1.6 0.00 0.00 0.00 37 1008.6
20260508013007 18 25 0.0 1.6 0.00 0.00 0.00 35 1008.6
20260508012504 18 0 0.0 0.0 0.00 0.00 0.00 36 1008.5
20260508012003 18 25 0.0 1.6 0.00 0.00 0.00 34 1008.4
20260508011508 19 26 0.0 1.6 0.00 0.00 0.00 33 1008.4
20260508011003 20 25 0.0 3.2 0.00 0.00 0.00 33 1008.3
20260508010503 20 30 0.0 4.8 0.00 0.00 0.00 32 1008.3
20260508010008 20 4 1.6 4.8 0.00 0.00 0.00 31 1008.2
20260508005503 20 352 1.6 4.8 0.00 0.00 0.00 30 1008.1
20260508005004 21 354 1.6 4.8 0.00 0.00 0.00 30 1008.1
20260508003504 21 8 3.2 9.7 0.00 0.00 0.00 29 1007.9
20260508003008 21 1 3.2 9.7 0.00 0.00 0.00 29 1007.9
20260508002503 21 345 3.2 8.0 0.00 0.00 0.00 28 1007.9
20260508002003 22 352 3.2 9.7 0.00 0.00 0.00 29 1007.9
20260508001508 22 358 3.2 9.7 0.00 0.00 0.00 29 1007.9
20260508001003 22 349 3.2 8.0 0.00 0.00 0.00 29 1007.8
20260508000504 22 343 3.2 9.7 0.00 0.00 0.00 28 1007.8
20260507235504 22 320 1.6 9.7 0.00 0.00 0.00 30 1007.8
20260507235003 22 359 3.2 9.7 0.00 0.00 0.00 30 1007.7
20260507234508 22 353 3.2 11.3 0.00 0.00 0.00 31 1007.8
20260507234004 21 323 4.8 12.9 0.00 0.00 0.00 30 1007.8
20260507233503 22 330 4.8 12.9 0.00 0.00 0.00 29 1007.8
20260507233008 22 346 3.2 12.9 0.00 0.00 0.00 28 1007.8
20260507232503 22 311 3.2 12.9 0.00 0.00 0.00 27 1007.8
20260507231508 22 334 4.8 14.5 0.00 0.00 0.00 29 1007.8
20260507231005 22 324 3.2 14.5 0.00 0.00 0.00 29 1007.8
20260507230503 22 347 1.6 8.0 0.00 0.00 0.00 31 1007.8
20260507225504 22 297 1.6 11.3 0.00 0.00 0.00 29 1007.7
20260507225003 22 314 3.2 11.3 0.00 0.00 0.00 28 1007.7
20260507224004 22 323 3.2 17.7 0.00 0.00 0.00 28 1007.6
20260507223008 22 329 4.8 16.1 0.00 0.00 0.00 31 1007.7
20260507222504 22 320 4.8 16.1 0.00 0.00 0.00 29 1007.9
20260507222004 22 307 3.2 6.4 0.00 0.00 0.00 29 1007.8
20260507221507 22 311 1.6 6.4 0.00 0.00 0.00 31 1007.7
20260507221003 21 321 1.6 11.3 0.00 0.00 0.00 31 1007.8
20260507220008 21 314 3.2 14.5 0.00 0.00 0.00 30 1007.9
20260507215503 22 330 1.6 12.9 0.00 0.00 0.00 31 1007.9
20260507215004 21 306 1.6 11.3 0.00 0.00 0.00 33 1007.8
20260507214507 21 305 3.2 11.3 0.00 0.00 0.00 31 1007.9
20260507214003 22 316 1.6 9.7 0.00 0.00 0.00 31 1007.9
20260507213504 21 332 3.2 14.5 0.00 0.00 0.00 32 1007.9
20260507213007 21 344 3.2 14.5 0.00 0.00 0.00 30 1008.0
20260507212504 22 324 3.2 16.1 0.00 0.00 0.00 31 1008.0
20260507212003 21 303 4.8 16.1 0.00 0.00 0.00 31 1008.1
20260507211508 21 312 4.8 14.5 0.00 0.00 0.00 32 1008.1
20260507211005 21 322 4.8 16.1 0.00 0.00 0.00 30 1008.0
20260507210503 22 333 4.8 16.1 0.00 0.00 0.00 30 1008.1
20260507210008 22 318 3.2 9.7 0.00 0.00 0.00 30 1008.2
20260507205504 22 305 3.2 9.7 0.00 0.00 0.00 31 1008.1
20260507204507 22 235 3.2 8.0 0.00 0.00 0.00 34 1008.2
20260507204004 22 271 3.2 12.9 0.00 0.00 0.00 32 1008.3
20260507203504 22 308 4.8 14.5 0.00 0.00 0.00 32 1008.4
20260507203008 22 328 6.4 16.1 0.00 0.00 0.00 29 1008.4
20260507202504 22 341 4.8 16.1 0.00 0.00 0.00 29 1008.5
20260507202004 22 327 4.8 12.9 0.00 0.00 0.00 29 1008.5
20260507200503 22 270 3.2 20.9 0.00 0.00 0.00 29 1008.5
20260507200008 22 273 3.2 17.7 0.00 0.00 0.00 27 1008.6
20260507195003 22 331 3.2 11.3 0.00 0.00 0.00 31 1008.4
20260507194508 23 316 3.2 16.1 0.00 0.00 0.00 31 1008.5
20260507193503 23 247 1.6 11.3 0.00 0.00 0.00 35 1008.4
20260507193008 23 266 3.2 11.3 0.00 0.00 0.00 35 1008.5
20260507191508 22 290 3.2 12.9 0.00 0.00 0.00 37 1008.6
20260507185503 23 261 1.6 8.0 0.00 0.00 0.00 37 1008.4
20260507185004 22 268 3.2 11.3 0.00 0.00 0.00 39 1008.6
20260507183504 22 223 3.2 9.7 0.00 0.00 0.00 38 1008.7
20260507183008 21 246 3.2 9.7 0.00 0.00 0.00 40 1008.8
20260507182503 21 260 3.2 9.7 0.00 0.00 0.00 39 1008.9
20260507182003 21 254 3.2 9.7 0.00 0.00 0.00 40 1008.9
20260507181508 21 258 3.2 9.7 0.00 0.00 0.00 40 1009.1
20260507180503 21 236 3.2 11.3 0.00 0.00 0.00 38 1009.1
20260507180008 21 251 3.2 12.9 0.00 0.00 0.00 39 1009.1
20260507175503 21 241 3.2 12.9 0.00 0.00 0.00 42 1009.1
20260507175004 21 253 3.2 11.3 0.00 0.00 0.00 43 1009.2
20260507174508 20 257 3.2 9.7 0.00 0.00 0.00 42 1009.3
20260507174003 20 237 3.2 8.0 0.00 0.00 0.00 39 1009.4
20260507173504 20 258 3.2 9.7 0.00 0.00 0.00 40 1009.5
20260507173007 20 258 3.2 9.7 0.00 0.00 0.00 40 1009.6
20260507172504 20 245 3.2 9.7 0.00 0.00 0.00 41 1009.5
20260507172003 20 241 3.2 8.0 0.00 0.00 0.00 40 1009.7
20260507171508 20 233 1.6 6.4 0.00 0.00 0.00 42 1009.7
20260507170504 19 246 1.6 8.0 0.00 0.00 0.00 41 1009.8
20260507165503 18 244 1.6 6.4 0.00 0.00 0.00 43 1010.0
20260507164003 18 231 3.2 6.4 0.00 0.00 0.00 45 1010.2
20260507163503 18 213 3.2 8.0 0.00 0.00 0.00 52 1010.2
20260507163007 17 213 3.2 9.7 0.00 0.00 0.00 48 1010.2
20260507162503 17 203 4.8 11.3 0.00 0.00 0.00 47 1010.2
20260507162003 17 194 4.8 12.9 0.00 0.00 0.00 50 1010.3
20260507161509 17 205 3.2 12.9 0.00 0.00 0.00 51 1010.3
20260507161004 17 223 3.2 6.4 0.00 0.00 0.00 51 1010.4
20260507160008 16 203 3.2 12.9 0.00 0.00 0.00 53 1010.5
20260507155504 16 216 3.2 8.0 0.00 0.00 0.00 53 1010.6
20260507155004 16 236 3.2 8.0 0.00 0.00 0.00 55 1010.6
20260507154507 16 230 3.2 8.0 0.00 0.00 0.00 54 1010.7
20260507153504 15 225 3.2 9.7 0.00 0.00 0.00 56 1010.8
20260507152503 15 213 3.2 9.7 0.00 0.00 0.00 60 1010.8
20260507152003 15 206 3.2 9.7 0.00 0.00 0.00 61 1011.0
20260507151508 15 214 3.2 8.0 0.00 0.00 0.00 62 1011.0
20260507151003 14 223 1.6 6.4 0.00 0.00 0.00 62 1011.1
20260507150008 13 235 3.2 6.4 0.00 0.00 0.00 63 1011.1
20260507145503 13 238 3.2 8.0 0.00 0.00 0.00 65 1011.2
20260507145003 13 240 3.2 8.0 0.00 0.00 0.00 65 1011.2
20260507144508 13 237 3.2 8.0 0.00 0.00 0.00 65 1011.3
20260507144004 13 235 1.6 6.4 0.00 0.00 0.00 66 1011.4
20260507143503 12 237 1.6 6.4 0.00 0.00 0.00 67 1011.4
20260507143008 12 232 3.2 6.4 0.00 0.00 0.00 67 1011.4
20260507142504 12 231 1.6 4.8 0.00 0.00 0.00 68 1011.5
20260507141508 12 245 1.6 4.8 0.00 0.00 0.00 71 1011.5
20260507140009 11 243 1.6 6.4 0.00 0.00 0.00 72 1011.6
20260507135503 11 247 3.2 6.4 0.00 0.00 0.00 72 1011.6
20260507135005 11 236 3.2 8.0 0.00 0.00 0.00 74 1011.6
20260507134003 10 240 1.6 6.4 0.00 0.00 0.00 74 1011.6
20260507133008 10 241 3.2 8.0 0.00 0.00 0.00 75 1011.6
20260507132503 10 237 1.6 6.4 0.00 0.00 0.00 76 1011.7
20260507131508 9 239 3.2 8.0 0.00 0.00 0.00 77 1011.7
20260507131005 9 239 3.2 6.4 0.00 0.00 0.00 78 1011.7
20260507130503 8 234 3.2 8.0 0.00 0.00 0.00 78 1011.8
20260507130009 8 232 3.2 8.0 0.00 0.00 0.00 78 1012.0
20260507125503 8 237 1.6 4.8 0.00 0.00 0.00 79 1012.1
20260507125003 8 237 3.2 4.8 0.00 0.00 0.00 80 1012.1
20260507124509 8 239 3.2 8.0 0.00 0.00 0.00 80 1012.0
20260507123504 7 243 3.2 6.4 0.00 0.00 0.00 80 1012.0
20260507123009 7 245 1.6 4.8 0.00 0.00 0.00 81 1012.0
20260507122503 7 243 1.6 4.8 0.00 0.00 0.00 81 1012.0
20260507122003 7 240 1.6 4.8 0.00 0.00 0.00 81 1012.0
20260507121508 7 239 1.6 6.4 0.00 0.00 0.00 82 1012.0
20260507121004 7 242 1.6 6.4 0.00 0.00 0.00 82 1012.0
20260507120504 7 237 1.6 4.8 0.00 0.00 0.00 82 1012.0
20260507120008 7 231 1.6 4.8 0.00 0.00 0.00 82 1012.0
20260507115504 7 242 1.6 3.2 0.00 0.00 0.00 82 1012.0
20260507115004 7 249 1.6 3.2 0.00 0.00 0.00 81 1012.0
20260507113503 7 241 1.6 3.2 0.00 0.00 0.00 81 1012.1
20260507113008 7 239 1.6 3.2 0.00 0.00 0.00 81 1012.0
20260507112504 7 234 1.6 3.2 0.00 0.00 0.00 81 1012.0
20260507112004 7 234 1.6 3.2 0.00 0.00 0.00 80 1012.0
20260507111003 7 232 0.0 1.6 0.00 0.00 0.00 80 1012.0
20260507110503 7 237 0.0 3.2 0.00 0.00 0.00 80 1012.0
20260507110008 7 240 0.0 3.2 0.00 0.00 0.00 80 1012.1
20260507105003 7 235 1.6 3.2 0.00 0.00 0.00 80 1012.0
20260507104508 7 235 1.6 3.2 0.00 0.00 0.00 79 1011.9
20260507104003 7 237 1.6 3.2 0.00 0.00 0.00 79 1011.9
20260507103503 7 238 1.6 3.2 0.00 0.00 0.00 79 1012.0
20260507103009 7 242 1.6 3.2 0.00 0.00 0.00 79 1011.9
20260507102003 7 250 0.0 3.2 0.00 0.00 0.00 79 1012.0
20260507101509 7 240 0.0 3.2 0.00 0.00 0.00 79 1012.0
20260507101004 7 246 1.6 3.2 0.00 0.00 0.00 78 1012.0
20260507100504 7 247 1.6 3.2 0.00 0.00 0.00 78 1012.0
20260507095003 7 229 1.6 3.2 0.00 0.00 0.00 78 1012.2
20260507094508 7 231 1.6 3.2 0.00 0.00 0.00 78 1012.2
20260507094005 7 236 0.0 3.2 0.00 0.00 0.00 78 1012.3
20260507092503 7 238 0.0 1.6 0.00 0.00 0.00 77 1012.3
20260507092004 7 239 0.0 1.6 0.00 0.00 0.00 77 1012.4
20260507091508 7 247 0.0 1.6 0.00 0.00 0.00 77 1012.4
20260507090503 7 238 0.0 1.6 0.00 0.00 0.00 76 1012.5
20260507090008 7 249 0.0 1.6 0.00 0.00 0.00 76 1012.6
20260507084508 7 0 0.0 0.0 0.00 0.00 0.00 75 1012.9
20260507084003 7 0 0.0 0.0 0.00 0.00 0.00 75 1012.9
20260507082503 7 257 0.0 1.6 0.00 0.00 0.00 73 1013.1
20260507082003 7 0 0.0 0.0 0.00 0.00 0.00 73 1013.2
20260507081508 7 0 0.0 0.0 0.00 0.00 0.00 73 1013.2
20260507081005 7 0 0.0 0.0 0.00 0.00 0.00 72 1013.3
20260507080503 7 257 0.0 1.6 0.00 0.00 0.00 72 1013.3
20260507075003 7 0 0.0 0.0 0.00 0.00 0.00 71 1013.5
20260507074003 7 0 0.0 0.0 0.00 0.00 0.00 72 1013.6
20260507073504 6 0 0.0 0.0 0.00 0.00 0.00 71 1013.6
20260507073008 6 0 0.0 0.0 0.00 0.00 0.00 72 1013.6
20260507072504 6 0 0.0 0.0 0.00 0.00 0.00 73 1013.7
20260507072003 6 0 0.0 0.0 0.00 0.00 0.00 72 1013.8
20260507071508 6 0 0.0 0.0 0.00 0.00 0.00 72 1013.9
20260507071003 6 0 0.0 0.0 0.00 0.00 0.00 72 1013.9
20260507070504 6 0 0.0 0.0 0.00 0.00 0.00 72 1013.9
20260507070011 6 0 0.0 0.0 0.00 0.00 0.00 73 1014.0
20260507065504 5 0 0.0 0.0 0.00 0.00 0.00 73 1014.1
20260507065004 5 0 0.0 0.0 0.00 0.00 0.00 74 1014.2
20260507064508 5 0 0.0 0.0 0.00 0.00 0.00 74 1014.3
20260507064003 5 0 0.0 0.0 0.00 0.00 0.00 75 1014.4
20260507063504 5 0 0.0 0.0 0.00 0.00 0.00 76 1014.4
20260507062504 5 0 0.0 0.0 0.00 0.00 0.00 76 1014.4
20260507062003 5 0 0.0 0.0 0.00 0.00 0.00 74 1014.4
20260507061508 5 0 0.0 0.0 0.00 0.00 0.00 74 1014.5
20260507061003 5 0 0.0 0.0 0.00 0.00 0.00 74 1014.4
20260507060504 5 0 0.0 0.0 0.00 0.00 0.00 74 1014.6
20260507060009 5 0 0.0 0.0 0.00 0.00 0.00 74 1014.6
20260507055503 5 0 0.0 0.0 0.00 0.00 0.00 74 1014.6
20260507055003 6 0 0.0 0.0 0.00 0.00 0.00 73 1014.6
20260507054508 6 0 0.0 0.0 0.00 0.00 0.00 74 1014.6
20260507054003 6 0 0.0 0.0 0.00 0.00 0.00 75 1014.7
20260507053503 6 0 0.0 0.0 0.00 0.00 0.00 75 1014.7
20260507053009 6 0 0.0 0.0 0.00 0.00 0.00 74 1014.7
20260507052504 6 0 0.0 0.0 0.00 0.00 0.00 74 1014.7
20260507052003 6 0 0.0 0.0 0.00 0.00 0.00 73 1014.6
20260507050504 6 0 0.0 0.0 0.00 0.00 0.00 74 1014.8
20260507050009 5 0 0.0 0.0 0.00 0.00 0.00 73 1014.8
20260507045503 5 0 0.0 0.0 0.00 0.00 0.00 73 1014.8
20260507044508 5 0 0.0 0.0 0.00 0.00 0.00 70 1014.7
20260507044003 5 0 0.0 0.0 0.00 0.00 0.00 70 1014.7
20260507043504 5 0 0.0 0.0 0.00 0.00 0.00 71 1014.8
20260507043009 5 0 0.0 0.0 0.00 0.00 0.00 70 1014.9
20260507042503 6 0 0.0 0.0 0.00 0.00 0.00 69 1015.0
20260507042003 6 0 0.0 0.0 0.00 0.00 0.00 68 1015.0